Theta_e
355 356 355 354 354 354 355 355 354 354 354 355 355 356 357 358 357 357 357 357 358 357 357 357 357 357 356 356 357 358 359 360 360 361 362 362 361 360 361 363 362 362 362 362 360 360 360 360 360 361 362 361 359 357 356 357 358 357 357 358 359 359 360 359 358 358 356 355 354 353 352 352 352 352 353 352 351 352 352 351 351 351 350 351 350
355 356 356 354 355 354 354 354 354 353 353 354 354 355 357 358 358 358 357 357 358 357 357 357 358 357 357 357 358 359 360 360 359 360 361 362 362 360 360 362 361 361 362 361 360 359 360 360 359 359 360 360 359 358 356 356 356 356 356 356 357 357 360 361 361 359 358 357 356 355 354 353 353 353 353 353 352 353 353 352 350 348 347 348 348
355 357 357 355 354 354 353 353 353 352 352 352 352 352 354 356 358 357 356 356 357 357 357 357 358 358 359 360 360 360 361 360 359 360 362 362 362 360 359 359 360 359 359 360 359 359 359 359 359 358 357 358 359 358 356 356 356 356 356 356 357 356 357 359 360 359 358 358 357 356 355 354 354 353 353 353 352 352 351 349 348 347 347 347 346
357 358 358 356 354 353 352 352 352 351 351 350 350 350 350 352 355 355 355 353 355 356 356 357 359 360 360 361 361 361 361 360 359 360 361 362 361 360 359 358 358 357 357 357 357 357 357 357 357 356 356 357 358 356 355 355 356 357 356 356 356 355 354 355 357 358 358 358 357 357 355 355 355 354 353 351 351 351 350 349 347 346 347 347 344
358 359 358 357 355 354 353 352 351 350 349 348 348 349 348 349 352 353 352 352 353 355 356 356 358 360 360 360 361 361 361 361 360 360 359 360 359 358 358 357 357 356 356 356 356 355 356 355 354 355 356 356 355 353 353 354 354 352 352 353 354 353 353 354 354 355 356 357 357 357 356 355 353 354 353 351 350 348 347 348 347 346 347 347 345
359 360 359 358 358 358 355 353 352 351 350 349 348 348 348 348 349 350 350 351 352 353 354 355 356 358 358 358 359 360 361 360 361 360 358 358 358 357 356 355 355 355 354 354 354 353 353 353 353 354 354 354 352 351 351 352 351 348 349 351 351 350 350 350 351 353 355 355 355 354 353 352 351 353 352 351 352 350 347 347 348 347 347 347 347
360 360 359 359 360 360 358 356 354 353 353 352 349 349 349 348 349 349 348 349 350 350 351 353 354 356 356 356 355 358 359 359 359 360 358 357 357 357 355 354 353 353 352 351 350 350 350 350 351 352 352 353 352 350 350 350 349 347 348 350 350 349 348 347 347 350 351 352 351 349 350 349 349 349 348 348 352 353 350 349 349 349 349 350 352
360 360 360 360 361 361 359 358 358 357 357 356 355 353 351 350 351 351 350 350 349 349 348 349 351 353 353 353 353 354 356 357 358 358 358 357 356 356 355 354 353 352 351 351 350 349 349 348 347 348 349 351 352 350 349 350 350 349 350 350 351 352 351 349 349 351 351 350 348 348 348 348 349 349 347 346 349 352 350 348 349 352 353 354 354
359 360 360 361 361 360 359 358 358 358 359 359 358 357 355 354 355 355 354 352 349 348 348 348 349 351 351 353 353 353 353 354 355 357 357 356 355 354 354 353 352 351 351 352 350 350 349 349 346 346 348 351 351 349 348 349 350 351 353 355 355 355 354 353 353 353 353 352 351 349 348 347 346 345 345 345 346 348 348 349 351 353 353 353 354
357 358 359 360 359 359 358 357 357 357 358 359 359 358 357 357 357 357 356 355 353 352 352 350 349 350 351 353 354 353 352 351 353 355 355 355 355 355 355 355 355 354 354 354 353 350 350 349 348 348 351 350 349 348 347 347 348 349 351 353 354 356 357 356 355 354 353 353 351 348 345 344 344 344 344 345 344 344 347 349 352 353 354 356 356
355 355 357 357 356 356 356 355 356 356 357 358 358 358 358 357 357 358 357 357 357 356 356 355 352 350 350 351 352 352 351 350 352 355 353 352 353 355 356 356 357 357 356 355 354 352 350 350 350 351 352 352 352 352 351 348 346 347 348 349 350 351 353 355 356 355 355 354 352 349 348 347 348 348 348 346 345 347 350 353 354 355 356 357 358
353 354 354 352 351 353 353 354 355 355 356 356 356 356 356 356 357 358 358 358 357 356 357 356 355 354 352 351 351 350 349 350 352 353 352 351 350 351 354 354 354 354 354 354 354 353 351 351 350 348 350 351 353 356 356 352 348 346 347 348 348 348 349 350 353 354 356 355 354 352 352 352 353 353 352 351 352 355 357 356 356 356 356 357 357
352 352 352 351 351 352 352 353 353 353 354 354 354 354 355 355 356 357 358 358 357 357 356 356 357 357 355 355 354 351 351 352 352 351 351 350 349 349 351 352 352 351 352 353 354 354 354 354 353 350 349 351 354 357 358 358 355 351 349 348 348 348 348 348 348 350 352 355 356 356 356 356 358 357 357 358 360 360 360 358 357 356 357 357 357
349 349 350 350 352 352 353 353 353 353 353 353 352 352 353 354 355 356 357 357 357 357 357 356 357 357 357 357 357 355 354 353 353 352 350 350 349 349 350 351 351 350 352 353 353 353 355 356 356 355 354 356 358 359 360 361 360 359 357 356 355 354 353 352 350 350 350 351 353 355 356 357 359 359 360 360 360 360 360 359 359 359 359 359 358
345 346 347 348 350 351 352 352 352 352 353 352 352 352 353 353 354 354 355 356 356 355 355 356 356 356 357 357 357 355 353 352 353 351 350 351 351 350 350 353 353 351 353 354 355 356 356 356 357 357 357 359 360 358 358 358 359 359 360 360 359 357 356 355 354 354 355 355 354 356 357 358 359 359 359 359 358 357 357 356 356 357 358 359 359
341 344 345 346 347 347 348 349 350 350 351 351 350 351 351 352 352 353 353 354 354 354 354 354 355 355 356 356 356 353 350 351 352 350 350 351 350 350 352 355 356 355 354 356 357 358 358 358 359 358 358 360 360 355 353 353 354 356 358 358 358 355 354 353 353 354 356 357 357 357 357 357 356 356 355 355 354 352 351 351 352 353 354 357 358
338 340 341 343 343 344 345 345 346 347 348 349 349 349 349 349 349 350 351 351 352 352 353 353 354 355 356 356 354 350 347 348 349 349 350 351 351 352 355 356 356 355 356 357 357 358 358 358 358 358 358 360 359 356 353 351 351 354 358 358 357 356 355 353 353 354 355 355 355 355 355 354 354 353 353 353 353 351 349 348 350 352 353 355 356
336 338 339 340 341 342 342 343 344 345 347 347 347 348 348 348 348 348 349 349 348 348 349 350 350 351 351 350 349 346 344 345 346 346 349 350 352 354 356 356 355 354 356 356 355 357 358 356 355 356 357 357 356 355 353 351 352 355 358 358 357 357 357 356 356 357 358 357 356 357 357 356 356 356 356 355 354 354 351 350 351 352 353 354 355
334 337 338 339 340 340 342 343 344 345 346 346 346 347 347 346 346 346 346 345 344 343 344 345 346 345 344 344 344 343 342 342 342 343 345 347 350 352 354 355 355 355 356 355 355 357 357 356 355 354 354 354 354 353 353 352 353 356 356 357 357 357 356 356 357 358 358 357 357 357 358 358 358 358 358 358 358 358 357 355 354 354 354 355 356
333 334 335 337 338 339 340 342 344 344 345 345 344 344 344 344 343 342 342 342 340 339 339 340 341 339 337 338 338 339 338 336 334 336 339 341 344 348 350 352 353 353 353 354 355 355 354 354 354 353 353 353 352 352 353 353 353 354 354 355 356 355 355 354 355 356 356 356 357 357 357 358 357 357 358 359 359 358 358 358 357 357 357 356 357
332 332 332 334 336 336 338 339 339 340 340 341 341 341 341 341 341 340 340 340 339 338 337 337 338 336 334 334 334 334 333 331 329 330 332 333 336 340 344 346 346 348 350 351 352 352 351 352 351 350 350 350 350 350 350 351 351 352 351 352 353 352 352 352 353 354 354 355 355 356 356 356 357 356 357 358 357 356 356 356 356 357 358 357 358
332 333 332 332 333 335 336 336 335 335 335 335 336 337 338 339 339 339 339 338 338 337 335 334 334 334 334 335 335 332 330 329 329 329 330 330 332 334 337 338 338 343 346 347 347 348 347 347 347 345 344 344 344 345 346 346 348 348 348 349 349 349 349 348 349 351 352 353 354 354 353 353 354 355 356 357 357 355 356 356 356 356 356 356 357
331 332 332 332 332 333 334 335 335 334 334 333 333 334 335 336 337 337 337 337 337 336 335 333 332 332 332 333 334 335 333 331 329 329 330 331 332 333 335 335 336 339 342 341 342 342 342 342 342 340 340 342 342 343 343 343 344 344 345 345 345 346 346 345 346 349 350 352 352 352 352 352 353 353 353 355 355 354 355 356 356 356 357 357 357
329 330 330 331 331 331 332 333 333 334 334 333 333 333 333 334 335 335 335 335 335 334 334 333 332 332 333 332 333 335 335 334 331 329 330 331 332 333 334 334 334 337 338 338 338 338 338 339 339 339 340 342 343 343 342 342 343 343 343 344 344 344 345 346 347 348 350 350 350 351 351 351 352 352 351 351 353 353 353 354 355 356 356 357 357
327 327 328 329 330 330 330 331 331 332 332 331 332 332 332 332 333 333 333 334 333 333 332 331 331 331 331 333 333 334 335 334 332 330 329 330 330 330 331 331 331 333 335 335 335 335 334 334 335 337 338 339 340 341 340 340 341 341 341 342 342 343 344 344 346 347 348 347 347 348 348 349 350 350 350 350 351 351 351 352 353 354 354 355 356
324 325 325 326 327 328 329 329 329 330 329 329 329 329 330 330 331 331 331 331 332 332 330 330 330 330 330 331 332 332 332 333 332 331 331 330 330 329 329 329 329 330 331 332 334 334 332 330 330 331 332 332 334 335 334 333 334 335 335 336 338 340 341 341 342 343 343 342 342 343 344 344 344 345 346 348 350 351 352 352 352 353 353 353 354
323 323 323 324 325 327 328 328 328 328 328 328 327 327 328 329 329 329 330 329 329 329 328 327 327 329 330 331 331 331 331 330 331 331 330 330 331 331 331 330 330 330 330 329 331 333 331 329 329 329 329 329 330 330 331 331 330 330 331 331 332 335 336 335 337 339 338 336 337 338 339 339 338 338 340 343 346 348 349 349 349 350 350 351 352
323 323 323 323 324 325 325 326 327 328 328 328 327 327 328 328 328 328 328 328 329 328 327 326 326 327 328 330 330 330 330 328 327 326 325 325 326 327 327 327 327 328 325 322 324 329 330 328 328 328 327 327 327 327 327 328 328 328 328 326 327 331 331 330 333 335 332 331 332 335 335 335 334 334 336 339 341 343 344 344 345 346 347 349 350
323 323 324 324 324 324 324 324 326 328 327 327 328 328 328 327 327 327 325 325 326 326 327 327 326 326 328 328 328 329 328 325 322 320 320 320 320 321 321 320 320 322 319 316 321 328 329 327 326 325 323 323 324 323 323 324 324 325 325 324 325 326 326 326 329 329 327 327 330 332 332 332 332 333 335 336 337 338 338 339 341 342 343 344 346
323 323 324 324 324 324 324 324 326 327 326 326 326 326 324 324 325 325 323 322 322 322 323 324 323 325 327 326 325 325 324 321 319 318 319 318 317 318 318 317 317 317 316 318 323 327 326 325 325 324 322 322 323 322 322 323 323 323 323 323 323 324 323 324 326 324 324 326 328 328 328 329 330 331 332 332 333 334 335 336 337 339 339 340 341
323 323 323 323 323 324 324 324 325 325 325 325 325 325 324 323 323 322 322 321 321 320 320 320 320 321 324 324 323 322 320 319 318 318 318 317 317 317 317 317 317 316 315 319 325 326 324 324 324 323 322 322 322 322 321 321 322 322 322 322 323 323 323 324 323 322 323 325 325 325 326 327 328 329 329 329 330 331 331 332 333 334 336 337 337
323 322 322 322 322 323 323 323 323 324 323 323 323 324 324 324 323 321 320 320 320 320 320 319 319 320 321 323 323 322 320 319 318 318 317 317 317 317 317 317 317 316 316 320 325 326 323 323 324 323 322 322 322 322 321 321 321 321 321 321 322 322 322 323 322 322 323 323 323 323 324 325 325 325 326 326 328 328 328 329 330 331 333 334 334
321 321 321 321 321 321 321 321 321 322 322 321 322 322 322 323 323 323 321 320 319 319 319 319 320 320 321 321 322 321 319 318 317 317 317 317 317 317 317 316 317 317 318 321 324 324 323 323 323 323 322 322 321 321 321 321 321 320 320 320 320 321 321 322 321 322 322 322 321 322 323 323 323 323 324 325 326 326 326 327 328 329 330 331 331
319 319 319 320 319 319 320 320 320 320 320 320 320 321 321 321 321 322 322 321 321 320 319 319 319 321 321 321 320 319 317 316 316 315 315 316 317 317 316 316 318 320 320 320 322 322 322 322 322 322 321 321 321 320 320 320 320 319 319 319 319 319 320 320 320 321 320 320 320 321 322 321 321 321 322 323 323 324 324 325 326 326 327 327 327
318 317 317 317 318 318 318 318 319 319 319 320 319 319 320 320 319 319 320 321 321 322 321 320 319 319 320 319 318 317 315 314 314 314 314 315 316 316 316 317 320 322 321 320 320 319 319 319 319 319 319 319 319 319 319 319 318 318 318 318 318 318 318 318 318 318 318 318 319 320 320 320 320 320 321 321 321 322 322 322 323 323 324 324 324
317 316 315 316 316 316 316 317 318 318 319 319 319 318 318 318 318 318 318 318 319 320 320 320 319 319 318 317 317 316 315 314 313 313 313 313 314 315 316 319 320 319 319 319 318 318 318 318 317 317 317 318 317 317 317 317 317 317 316 316 316 316 316 316 316 316 315 316 317 318 318 319 319 319 319 319 319 320 320 320 320 320 321 321 321
317 316 316 315 315 315 315 315 316 317 317 317 317 317 317 317 317 317 317 317 318 318 318 318 319 319 319 318 317 316 316 315 314 313 313 313 313 314 316 319 319 318 318 318 317 317 317 316 316 316 316 316 316 315 315 315 315 315 315 314 314 315 315 314 313 313 314 315 316 317 317 317 318 318 317 318 318 318 318 318 318 318 318 318 318
316 316 315 315 314 314 314 314 314 314 314 314 315 315 316 316 316 316 316 316 317 317 317 316 317 317 318 318 317 316 316 315 315 314 314 314 315 316 317 318 318 318 318 317 317 316 316 316 315 315 315 314 314 314 313 314 314 314 313 313 313 314 313 313 313 314 314 314 314 315 315 315 316 316 316 316 316 317 317 317 317 317 317 317 317
315 314 312 311 311 312 313 313 313 313 312 313 313 314 314 314 315 315 315 315 315 316 316 315 316 316 316 316 316 315 315 314 315 315 316 316 316 316 317 317 317 317 317 317 316 316 315 315 314 314 313 313 313 312 312 312 312 312 312 312 312 313 313 313 313 313 313 313 313 313 313 313 314 314 314 314 315 315 315 315 315 315 316 316 316
314 313 310 309 310 311 311 312 312 312 312 312 312 313 313 313 314 314 314 314 314 315 315 314 314 315 315 314 314 313 313 313 313 314 314 314 315 315 315 315 315 316 315 315 315 315 314 314 313 313 312 312 312 311 311 311 311 311 311 311 311 312 312 312 312 312 312 312 312 312 312 312 312 312 313 313 313 313 313 313 313 313 314 314 315
314 313 311 309 309 310 310 311 311 311 311 311 310 311 312 312 312 313 313 312 312 313 313 313 313 313 313 312 311 310 310 311 311 312 312 313 313 313 314 314 314 314 314 314 313 313 312 312 312 312 311 311 311 310 310 310 310 310 310 310 310 310 310 310 311 311 311 311 310 311 311 311 311 311 311 311 311 311 311 312 312 312 313 313 314
313 313 312 310 309 309 310 310 310 310 309 309 309 310 310 311 311 311 311 311 311 311 311 311 311 312 311 310 309 308 308 309 310 310 311 311 311 312 312 312 312 312 312 311 311 311 311 310 310 310 310 310 309 309 309 309 308 308 308 308 309 309 309 309 309 309 309 309 309 309 310 309 309 309 309 309 309 310 310 311 311 311 312 312 312
312 311 311 310 310 309 309 309 309 309 309 309 309 309 309 310 310 310 310 310 310 310 309 309 310 310 310 309 308 307 307 308 308 309 309 310 310 310 310 310 310 310 309 309 309 309 308 308 308 308 308 307 307 307 307 307 307 307 307 307 307 307 307 307 307 307 307 308 307 307 307 307 307 307 308 308 308 309 309 310 310 310 310 310 310
310 310 310 309 308 308 308 308 308 308 308 308 308 308 309 309 309 309 309 308 308 308 308 308 308 308 309 308 307 306 306 307 307 307 308 308 308 308 308 308 307 307 307 307 306 306 306 306 306 306 306 305 305 305 305 305 305 305 305 305 305 305 305 306 305 306 305 305 305 305 304 304 305 305 305 306 306 306 307 307 307 308 308 308 309
308 309 308 308 308 308 307 307 307 307 307 307 307 307 307 307 307 307 307 306 306 307 307 306 306 306 306 306 306 305 306 306 306 306 306 306 306 306 306 305 305 305 304 304 304 304 304 304 304 304 304 304 303 303 303 303 303 303 303 303 303 303 303 303 303 303 303 302 301 301 301 301 302 302 303 303 304 304 305 305 306 307 307 307 308
306 307 307 307 307 307 307 307 306 306 306 306 306 306 306 305 305 305 305 304 304 305 305 305 304 304 305 304 304 304 304 305 305 305 305 304 304 304 303 303 303 303 303 302 302 302 302 302 302 302 302 302 302 301 301 301 301 301 301 301 301 301 301 300 300 299 299 298 298 298 298 299 299 300 300 301 302 302 303 304 305 306 307 306 307
306 306 306 306 306 306 306 305 305 305 304 304 304 304 304 304 304 303 303 303 303 303 303 303 303 303 303 303 303 303 303 303 303 303 303 303 302 302 302 301 301 301 301 301 300 300 300 300 300 300 300 300 300 300 300 300 300 300 300 300 299 299 298 297 297 297 296 296 295 296 296 296 297 298 298 299 300 301 302 302 303 304 305 305 305
304 305 305 305 305 305 304 304 304 303 303 303 303 303 303 303 302 302 302 302 301 301 301 301 301 301 301 301 301 301 301 301 301 301 301 301 301 300 300 300 300 300 299 299 299 299 299 299 298 298 298 299 299 299 299 299 299 299 299 298 298 297 296 295 295 294 293 293 293 294 294 295 296 296 297 298 299 299 300 301 302 302 303 304 304
304 304 304 304 304 304 304 303 303 303 303 302 302 302 301 301 301 301 301 300 300 300 300 300 300 299 299 299 299 299 299 299 299 299 299 299 299 299 299 299 298 298 298 298 297 297 297 297 297 297 298 298 298 298 298 298 298 298 297 297 296 296 295 294 293 292 292 292 292 293 294 294 295 295 296 297 298 299 299 300 301 302 302 303 303
304 304 304 304 303 303 303 302 302 302 301 301 301 301 301 300 300 300 300 300 300 299 299 299 298 298 298 298 298 298 298 298 298 298 298 298 298 298 298 298 297 297 297 296 296 296 296 296 296 296 297 297 297 297 297 297 297 296 296 296 295 294 293 292 291 291 291 291 291 292 293 294 295 296 296 297 298 298 299 300 300 301 302 302 302
303 303 303 303 302 302 302 301 301 301 301 301 301 300 300 300 300 300 300 299 299 299 298 298 298 298 298 297 297 297 297 297 297 297 297 297 297 297 297 297 296 296 296 295 295 295 295 295 296 296 296 296 296 296 296 296 296 295 295 294 294 292 291 291 291 291 291 291 291 292 293 294 295 296 297 297 298 298 299 300 300 300 301 301 302
Wind_Speed
15 15 14 14 13 12 12 12 12 12 11 10 9 8 8 8 7 7 7 7 7 8 8 8 7 7 7 7 6 6 6 6 6 6 6 6 6 6 5 5 6 5 5 5 5 5 5 5 5 5 5 5 6 6 6 6 6 6 6 6 6 6 5 6 8 10 10 11 11 12 11 11 11 10 11 12 12 12 13 13 13 13 13 13 13
15 14 14 14 14 13 12 12 12 13 12 11 11 10 9 9 8 7 7 8 8 8 8 8 8 7 7 7 6 6 6 7 7 7 7 6 6 6 6 6 6 6 6 6 5 5 5 5 5 5 5 5 6 7 7 6 6 6 6 6 7 7 5 6 8 10 11 10 11 12 11 11 11 11 11 11 11 12 12 13 13 13 13 13 13
14 14 14 14 14 13 12 12 12 13 13 12 12 11 10 10 9 9 8 8 8 8 8 8 8 8 8 7 7 7 7 7 7 7 6 6 6 6 6 6 6 6 6 6 6 5 5 6 6 5 5 5 5 6 7 6 6 6 7 7 8 8 7 7 8 10 11 11 11 12 12 11 11 11 11 11 11 12 12 13 13 13 13 13 14
13 14 14 14 13 13 12 12 12 12 13 13 12 12 11 10 10 10 10 9 9 9 9 8 8 8 8 8 8 8 8 8 8 7 7 7 7 7 6 6 7 7 6 6 6 6 6 6 6 6 5 5 6 7 7 6 6 6 7 7 7 8 8 8 8 9 11 12 12 12 12 12 12 11 11 12 12 12 12 12 13 13 13 14 15
13 13 13 13 13 13 12 12 12 12 12 12 12 12 12 11 10 10 10 10 9 9 9 9 8 8 8 8 8 8 8 8 8 8 8 7 7 7 7 7 7 7 7 7 7 7 7 7 7 7 6 7 7 7 6 6 7 7 8 8 8 8 8 8 9 9 10 12 12 12 12 12 12 12 12 13 14 14 13 13 14 14 13 14 15
13 13 12 12 12 13 12 12 12 12 12 12 12 12 12 11 11 10 11 11 10 9 9 9 9 9 8 8 8 8 8 8 8 9 9 8 8 8 8 8 8 8 8 8 8 8 8 8 8 8 7 8 7 7 7 7 7 7 8 8 8 9 9 9 9 9 10 11 12 13 12 12 12 13 12 13 14 15 15 15 14 14 14 14 15
15 14 13 12 12 12 12 11 11 11 11 11 11 11 11 11 11 11 11 11 12 11 11 10 10 10 9 9 9 9 9 9 9 9 9 9 9 9 9 9 9 9 9 9 9 9 9 9 9 8 8 8 8 7 7 7 8 8 8 8 8 9 10 10 10 10 11 12 12 13 13 12 13 14 14 13 13 14 14 14 14 14 14 14 15
15 14 14 13 12 11 11 10 10 10 10 10 10 10 11 10 10 10 10 11 12 12 12 11 11 10 10 10 10 10 11 11 11 10 10 10 10 10 10 10 10 10 10 10 10 10 9 9 10 10 9 8 8 8 8 7 8 8 8 9 9 9 10 10 10 10 11 12 12 13 13 13 13 13 13 12 12 12 13 13 14 15 15 15 15
15 16 15 14 13 12 10 9 9 9 9 10 10 10 10 10 10 10 10 11 11 11 12 11 11 11 10 10 10 11 12 12 12 11 11 10 10 11 11 11 11 11 11 11 11 11 11 11 11 10 9 10 10 11 10 10 10 10 10 10 10 10 11 11 11 11 11 12 12 12 13 13 13 13 13 12 12 14 15 15 15 16 16 16 16
16 16 14 13 12 11 11 10 9 10 10 10 10 11 11 11 10 10 10 10 10 11 11 11 12 11 11 11 11 11 12 12 13 13 12 11 10 10 10 10 11 11 11 11 12 12 12 12 11 10 11 13 13 11 10 10 10 11 11 11 11 11 11 12 12 12 12 12 13 13 13 14 14 14 15 15 15 16 15 15 16 17 17 17 16
16 15 13 13 12 10 10 11 11 11 11 10 10 11 11 11 11 11 11 10 10 10 10 11 12 12 12 12 12 12 11 11 13 15 15 14 12 11 11 11 11 11 12 12 13 13 13 12 12 11 12 13 12 10 10 11 10 10 10 11 11 11 11 12 12 12 12 13 14 14 14 14 15 15 16 17 17 16 16 16 16 17 16 16 16
14 12 10 12 12 10 10 10 10 11 11 11 11 11 12 12 12 12 11 11 11 11 11 11 11 12 12 12 13 12 10 10 12 14 15 15 15 13 13 13 13 13 13 13 13 12 13 12 13 13 12 11 11 10 11 12 12 11 11 10 11 12 13 13 13 13 12 13 14 15 15 15 15 16 16 17 17 16 16 16 16 17 17 17 17
11 9 8 9 9 9 9 9 9 9 10 11 11 12 13 13 14 13 12 11 11 11 11 11 10 10 10 10 11 10 8 10 13 14 15 15 15 14 14 14 14 14 14 13 13 13 12 12 12 13 12 11 11 10 10 11 11 12 13 12 13 13 13 14 15 15 15 14 15 15 15 15 15 15 16 15 15 16 17 18 18 18 18 17 17
11 9 8 7 7 8 8 9 9 10 10 9 9 9 11 12 13 13 12 12 12 12 12 11 10 10 9 9 9 7 8 10 12 13 13 12 12 12 12 14 15 15 14 14 14 13 12 12 12 12 11 10 10 9 9 9 10 10 11 12 13 14 14 15 16 15 16 17 18 18 18 17 16 16 16 15 15 16 17 18 19 18 18 18 18
12 10 9 8 8 9 8 8 8 7 7 7 7 7 8 8 8 9 9 10 11 12 13 12 12 11 10 9 8 6 8 11 11 11 11 11 11 11 11 13 14 14 14 13 13 12 12 12 11 11 10 9 9 11 10 9 10 10 11 12 13 14 15 16 16 15 15 16 17 18 18 17 17 17 16 15 16 17 18 18 19 19 20 20 20
13 12 11 11 11 10 10 10 9 9 8 7 7 7 7 6 6 6 7 8 8 9 10 11 12 11 10 10 9 6 7 9 10 11 12 11 12 12 12 13 14 14 13 12 11 10 9 9 9 10 9 8 10 12 12 11 11 11 12 13 14 15 16 16 16 16 16 15 15 17 17 18 18 20 20 20 20 20 19 19 19 19 19 19 19
14 13 12 11 11 10 9 10 10 10 10 9 9 8 7 7 7 6 6 6 6 6 6 6 7 7 7 9 8 6 4 5 5 6 8 8 9 10 10 12 14 14 13 12 11 9 8 8 8 7 6 7 9 12 13 13 12 11 12 13 15 16 16 15 14 14 14 13 15 17 19 20 21 22 23 23 22 20 18 18 18 18 18 18 18
12 12 12 12 11 10 10 10 10 9 10 10 10 9 8 9 9 8 7 7 7 6 5 4 3 5 7 8 8 7 3 3 2 2 3 4 5 5 7 10 12 12 12 11 10 8 7 7 8 7 7 8 11 12 13 13 11 10 11 13 14 15 15 13 11 10 11 13 16 19 20 21 21 22 24 24 22 19 19 20 19 18 18 18 18
12 11 12 12 12 11 10 10 10 9 9 10 10 10 10 10 9 8 7 8 8 8 7 6 6 6 8 9 8 6 3 2 3 2 3 3 3 3 4 7 8 9 10 9 8 7 6 6 7 7 8 10 10 11 11 10 9 9 11 13 14 14 14 13 11 11 13 16 18 19 20 20 21 21 22 23 22 19 19 21 20 18 18 19 20
10 10 11 11 11 12 11 11 10 10 10 10 10 11 11 10 10 9 8 8 7 7 7 6 4 4 6 7 6 4 3 1 1 2 2 3 3 3 2 4 5 6 7 7 7 7 6 7 7 7 7 8 9 10 11 10 10 10 11 12 12 13 15 15 15 15 17 18 19 20 19 19 19 20 20 19 19 19 20 20 18 17 17 18 20
8 8 9 10 11 11 12 12 12 11 11 11 10 10 10 10 10 9 8 8 8 8 8 6 4 3 5 6 6 6 6 5 5 5 5 3 2 1 1 2 2 3 4 5 5 5 3 3 5 7 9 10 11 11 11 11 11 11 11 12 13 15 18 18 17 17 18 18 18 18 18 18 18 18 18 17 18 19 19 18 17 15 16 17 18
8 7 8 9 10 10 11 11 10 10 11 11 11 10 9 9 8 8 8 9 9 8 7 6 5 5 5 6 6 7 7 7 7 7 7 7 5 3 2 1 1 1 2 4 3 4 4 4 6 8 9 10 10 10 10 10 10 10 11 13 14 14 15 16 16 16 16 17 17 17 18 19 18 18 17 16 16 18 19 19 19 18 19 21 21
8 7 7 9 9 8 9 8 8 8 9 9 9 9 8 8 7 7 7 8 8 8 6 6 5 4 4 5 6 6 6 6 7 7 6 7 6 5 4 4 4 4 1 2 2 3 4 4 6 6 6 6 5 5 6 6 6 7 9 10 11 11 12 14 14 14 15 16 16 16 17 17 18 18 17 16 17 19 19 20 21 21 21 22 22
7 6 6 7 7 7 7 7 6 7 6 6 7 6 6 6 6 5 5 5 5 6 5 4 4 4 4 4 4 5 4 4 6 7 7 7 6 6 5 5 5 6 4 2 1 1 2 2 3 4 4 4 3 4 5 5 4 5 6 6 7 8 9 11 12 12 13 15 14 14 15 15 16 18 20 19 20 20 21 21 20 20 20 20 20
7 6 6 6 5 5 5 5 5 5 5 5 5 4 4 4 4 3 3 3 3 4 3 3 3 3 3 4 4 4 4 3 4 6 8 9 8 8 8 7 7 7 6 4 3 2 3 3 3 4 5 5 4 4 5 5 5 5 6 6 6 6 7 9 10 11 12 12 12 13 14 15 16 19 21 21 20 20 20 20 19 19 20 20 20
7 6 5 5 4 4 5 5 5 5 4 4 4 3 3 3 3 2 2 2 2 2 2 2 3 3 3 3 4 4 4 4 4 4 5 5 5 6 7 7 7 7 6 5 5 5 6 6 6 6 6 6 6 5 5 6 7 7 7 7 6 5 6 7 9 10 11 12 13 13 13 14 17 19 20 21 19 17 17 17 18 18 18 19 20
6 6 5 4 4 4 3 3 4 5 4 3 4 3 3 3 3 2 2 1 1 1 1 1 1 2 3 3 3 4 4 4 3 3 3 3 3 4 5 5 6 6 6 6 6 5 6 6 6 6 7 7 7 6 6 6 7 7 6 7 6 5 5 6 7 7 9 11 12 13 14 16 17 18 18 18 18 17 17 18 18 19 19 20 20
5 4 4 4 3 3 3 3 3 4 4 4 4 3 2 3 3 2 2 2 1 1 0 1 0 0 1 2 2 3 3 3 4 4 4 4 4 4 5 6 6 6 6 7 6 5 5 5 5 5 6 5 5 5 4 5 6 6 6 7 7 5 6 6 5 6 9 11 11 12 13 15 16 15 15 15 16 16 17 18 19 19 20 21 20
4 4 3 3 3 3 3 4 4 4 5 5 4 3 2 3 3 3 3 2 1 1 1 1 1 1 1 1 0 2 2 2 4 4 5 5 5 5 6 6 6 6 7 7 6 4 5 5 4 5 6 5 5 5 5 5 6 6 7 8 7 6 7 7 6 7 10 11 10 11 12 12 13 13 13 14 14 14 15 16 17 17 18 19 19
4 4 3 3 3 2 3 3 3 3 4 5 5 3 2 2 2 2 3 3 2 2 1 1 1 0 0 1 1 1 1 3 3 3 4 5 6 6 6 7 7 7 7 7 5 4 5 5 4 5 6 6 5 6 6 6 7 7 7 7 7 7 8 7 7 9 10 10 9 10 11 11 12 12 12 13 14 14 14 15 15 16 16 16 17
4 4 4 3 3 2 2 3 3 3 3 4 5 4 4 4 4 3 2 2 2 1 0 0 1 3 3 2 1 1 1 2 2 2 3 4 5 6 6 7 8 8 9 8 6 5 5 5 5 5 6 6 5 6 7 7 7 8 8 7 7 7 7 7 8 10 11 9 9 10 10 11 11 12 12 13 14 14 14 14 14 14 14 15 16
2 3 4 4 3 2 3 3 3 4 4 4 5 5 5 5 6 5 4 3 2 1 2 2 3 5 6 5 3 1 2 1 2 3 3 4 4 5 6 7 8 9 9 8 6 6 6 5 5 5 5 6 5 6 7 7 7 8 8 8 8 8 8 8 10 11 10 9 10 10 10 10 11 12 12 13 13 14 14 13 14 14 14 14 15
2 2 2 3 2 2 2 3 3 4 4 5 5 5 5 5 5 6 6 4 3 3 4 4 5 6 6 6 5 3 3 3 3 3 3 4 4 4 6 7 8 9 9 7 5 6 6 5 5 5 5 6 6 6 7 7 7 8 8 8 9 9 9 9 10 10 9 10 11 10 10 10 11 12 12 12 13 13 14 14 14 14 13 14 14
2 1 1 2 1 1 1 2 2 3 3 4 4 4 4 5 4 5 6 5 4 4 4 5 6 6 6 6 5 4 4 3 3 3 3 4 4 5 6 7 7 6 5 5 5 6 6 6 6 6 6 6 6 7 7 7 7 8 8 9 9 9 10 10 10 10 10 11 11 11 11 11 12 12 13 13 13 13 14 14 14 14 13 14 15
3 3 3 2 1 1 1 1 2 3 3 4 4 4 4 4 5 6 6 6 6 6 5 5 6 7 6 5 5 6 5 5 5 5 4 5 5 6 6 8 8 7 5 5 7 7 8 8 7 7 7 7 7 7 7 8 8 9 9 9 10 10 11 11 10 11 12 12 12 12 12 13 12 12 13 13 14 14 14 14 14 14 14 15 15
4 5 5 3 2 2 3 3 3 4 4 5 5 5 5 5 6 6 6 6 7 7 6 6 6 6 7 7 7 8 8 7 7 7 7 7 7 7 8 9 10 9 8 9 9 9 9 9 9 9 9 8 8 9 9 9 9 10 10 11 11 11 11 11 11 12 13 13 13 13 13 13 13 13 13 14 14 14 14 15 15 15 15 15 16
4 4 4 3 3 3 3 4 4 4 5 6 7 7 7 7 7 8 7 7 8 8 8 7 7 7 7 7 5 5 7 9 10 9 8 8 7 7 8 10 10 10 10 10 10 9 9 9 9 9 10 10 10 10 10 11 11 11 11 11 12 12 12 12 12 13 14 14 14 14 14 14 14 14 14 15 15 15 15 15 16 16 17 17 18
5 4 4 5 4 3 4 5 5 5 6 7 8 8 9 9 9 9 9 9 8 9 9 9 9 9 8 7 5 5 8 10 11 10 9 8 7 7 9 9 9 10 10 9 9 9 9 9 9 9 10 10 10 11 11 12 12 12 12 12 13 12 12 12 12 12 13 14 14 15 15 15 15 15 15 16 16 16 16 16 17 17 18 18 17
6 6 7 7 5 4 5 6 6 6 7 8 8 8 8 9 9 10 10 9 9 10 10 10 10 10 9 8 6 7 8 9 10 9 8 8 8 9 10 10 9 10 10 9 9 9 9 10 10 10 10 10 10 11 12 12 12 13 13 13 13 13 12 12 12 12 13 13 14 15 16 16 16 16 17 17 17 17 18 18 18 19 19 19 18
6 7 8 7 5 5 5 5 6 6 6 6 7 7 8 9 9 9 9 9 10 10 10 10 11 9 7 6 5 5 6 8 9 8 8 9 10 10 10 10 9 9 9 9 9 9 10 10 10 10 11 11 11 11 12 12 13 14 13 13 13 13 13 13 13 14 14 15 16 17 17 17 17 18 18 18 18 18 19 20 20 19 20 20 20
6 6 7 7 6 5 5 6 6 6 5 5 6 7 7 8 8 8 9 9 9 10 10 10 10 7 4 5 6 6 8 10 11 10 9 10 10 10 10 10 9 9 9 10 10 10 10 11 11 11 11 12 12 12 13 13 14 14 14 14 14 14 14 14 14 15 16 17 17 18 18 18 18 19 19 20 20 20 20 20 20 20 20 21 21
6 6 7 7 6 5 5 6 6 5 5 6 6 7 7 7 7 8 8 8 9 9 9 10 9 6 4 5 7 7 8 11 11 11 10 10 10 10 10 9 9 9 9 9 10 10 11 11 11 11 12 12 13 13 13 14 14 15 15 15 15 15 15 15 15 16 17 18 18 19 19 19 20 20 21 21 21 20 20 20 20 20 21 21 22
5 5 6 6 5 5 5 5 5 6 6 7 7 7 7 7 7 7 7 7 8 8 9 10 9 7 5 5 6 7 9 11 11 11 11 10 10 9 9 9 9 9 8 9 9 10 11 12 11 12 12 13 13 14 14 14 15 15 16 16 16 16 16 17 17 17 18 18 19 19 20 20 20 20 21 21 21 21 21 21 21 21 22 22 23
5 5 6 5 5 5 5 5 5 6 6 6 6 6 7 7 7 7 7 8 8 9 9 9 9 8 7 7 7 8 9 10 10 10 10 10 10 10 10 9 9 9 9 9 10 10 11 12 12 12 13 13 13 14 14 14 14 15 16 16 16 16 16 17 17 17 18 18 19 19 19 19 19 20 20 20 21 21 22 21 21 22 22 22 23
5 5 6 5 5 5 5 4 5 5 6 6 6 6 7 7 7 7 7 8 8 9 9 9 9 9 10 10 10 9 10 10 10 10 10 10 10 10 9 9 9 10 9 10 10 10 11 12 12 12 13 13 13 13 14 14 14 14 15 15 16 16 16 16 16 17 17 17 18 19 19 20 20 20 21 21 21 22 22 23 23 24 24 24 24
5 5 6 5 5 5 4 4 5 5 6 6 6 6 7 7 7 7 8 8 8 9 9 9 10 10 10 10 10 9 9 9 9 9 9 9 9 9 9 9 10 10 10 10 10 11 11 12 12 12 13 13 13 14 14 14 14 14 14 14 15 15 15 15 15 15 16 17 19 20 20 21 21 21 22 23 23 23 24 25 25 26 27 26 26
6 6 6 6 5 5 5 5 5 6 6 7 7 7 7 7 7 7 8 8 8 8 8 8 9 9 9 9 9 9 9 9 9 9 9 9 10 10 10 10 10 10 10 11 11 11 11 11 12 12 13 13 13 14 13 13 13 13 12 12 12 12 13 14 15 16 17 19 20 21 21 22 23 22 22 23 23 24 25 26 26 26 26 26 26
8 7 7 6 6 6 6 6 6 6 7 7 6 6 6 6 7 7 7 7 7 7 7 7 8 8 8 8 8 8 8 8 9 9 9 9 9 10 10 10 11 11 11 11 11 11 11 12 12 13 13 13 13 13 13 13 13 12 12 12 12 13 15 16 17 18 18 19 20 21 21 22 23 23 23 24 24 25 26 26 26 26 26 26 26
9 9 8 7 7 6 6 6 6 6 5 5 4 4 4 5 6 6 6 6 6 6 6 7 7 7 7 7 7 7 8 8 8 9 9 9 9 9 9 10 10 10 10 11 11 11 12 12 12 12 12 12 12 13 13 13 13 12 12 12 14 16 18 18 18 17 17 18 19 20 21 23 24 24 25 25 25 25 26 26 27 27 27 27 27
9 9 9 7 7 6 5 5 5 4 4 4 4 4 4 5 5 5 5 5 5 5 5 6 6 6 6 6 6 6 7 7 7 8 8 8 8 9 9 9 10 10 10 11 11 11 12 12 12 12 12 12 12 12 13 13 12 12 12 14 16 18 19 18 17 17 19 20 21 20 21 23 24 25 25 25 25 25 25 26 26 27 27 28 28
9 9 8 7 7 6 5 5 5 5 4 4 4 4 4 5 5 5 4 4 4 4 5 5 6 6 6 6 6 6 6 7 7 8 8 8 8 9 9 9 10 10 10 11 11 11 11 11 11 11 12 12 12 12 12 12 12 13 15 17 18 18 18 17 18 21 23 23 23 22 21 23 24 24 24 25 25 26 27 27 27 28 28 28 28
Wind_Direction
198 202 205 206 206 204 204 205 207 209 208 208 208 205 201 199 198 196 192 190 185 182 186 187 189 194 198 197 197 195 197 201 201 201 207 210 218 228 225 226 241 252 257 261 262 260 263 268 272 276 278 280 284 284 282 278 275 276 279 283 288 291 293 290 291 296 298 301 305 307 312 316 316 319 319 316 317 321 320 317 315 314 314 315 316
196 200 204 205 206 206 206 204 205 209 210 210 211 208 203 202 202 200 197 194 192 188 188 188 189 193 197 197 199 201 201 208 213 213 218 221 223 230 228 227 237 245 251 257 259 259 259 262 266 267 265 269 276 282 285 285 285 286 288 290 295 297 295 294 296 299 300 304 307 306 310 313 313 317 318 315 317 318 316 316 316 316 316 316 316
193 194 199 203 205 206 207 206 204 207 209 211 214 212 207 203 203 205 205 199 194 195 196 192 188 191 196 195 197 203 204 210 218 221 228 233 236 239 235 230 235 240 245 250 253 254 253 256 260 262 261 263 271 279 285 287 288 291 292 293 295 296 297 295 295 297 300 304 306 306 310 313 311 312 312 311 312 313 313 315 315 315 315 314 313
190 190 195 201 204 205 206 207 206 207 209 211 215 216 213 207 205 207 210 206 198 197 200 198 193 194 200 199 199 205 208 212 220 225 231 237 241 242 239 236 239 241 243 249 252 252 255 258 261 263 263 264 267 272 277 280 284 287 289 291 293 295 298 296 291 293 295 298 301 304 307 307 305 307 310 311 310 310 311 312 312 312 311 311 309
185 188 194 197 199 202 205 207 209 209 211 212 212 215 217 214 211 211 213 213 206 199 200 201 201 202 207 208 207 209 211 214 219 223 228 234 238 241 241 239 242 245 247 249 250 252 255 256 257 259 259 260 263 269 275 280 285 287 287 289 292 294 296 293 290 287 287 291 296 299 299 300 301 304 308 309 309 310 310 308 308 309 310 309 308
181 185 190 193 193 198 204 209 211 210 212 216 214 212 215 217 217 216 216 216 214 209 206 206 206 207 211 214 215 215 218 220 222 225 230 233 235 238 240 241 244 248 250 250 250 250 251 252 252 253 254 258 263 269 274 278 280 282 284 286 288 289 287 285 284 283 283 284 288 291 293 297 299 301 304 305 305 306 308 308 307 308 311 311 310
180 183 185 188 190 194 203 211 215 215 215 219 218 215 215 217 219 219 218 217 218 218 217 214 212 213 216 220 222 220 221 223 223 227 232 233 233 234 237 240 245 248 249 250 250 249 248 249 248 245 247 253 259 264 269 274 276 278 279 281 284 285 285 285 284 283 283 283 285 289 292 296 297 298 301 300 295 296 302 307 307 308 311 311 309
179 184 183 184 186 190 198 205 211 216 217 217 217 217 218 218 216 217 217 218 220 223 224 223 222 223 224 226 227 224 222 223 224 226 231 233 233 232 233 237 242 246 248 248 248 247 247 247 245 244 244 243 249 258 262 266 272 275 276 277 279 279 280 284 285 283 283 284 286 290 292 293 293 294 299 300 296 298 303 305 305 306 308 308 307
182 186 182 181 182 181 185 195 204 213 215 216 217 217 218 217 213 214 216 219 223 226 228 230 230 230 229 228 229 229 226 224 222 220 223 229 235 236 235 237 240 243 247 249 248 246 245 245 246 243 237 239 253 265 265 264 268 270 272 273 275 276 277 279 279 278 279 281 284 287 289 289 291 294 298 301 300 301 302 303 302 303 306 306 304
187 189 181 179 182 178 179 189 202 211 214 217 220 217 215 214 214 216 217 219 223 223 224 228 230 232 232 230 230 231 232 232 226 221 220 222 230 238 241 241 243 246 249 252 253 252 249 249 250 247 246 256 267 272 268 266 266 265 266 267 269 273 276 277 277 277 279 280 281 284 286 288 293 298 299 299 302 303 303 304 303 302 305 304 302
187 188 181 181 187 185 186 193 201 210 216 218 219 218 216 216 217 218 217 216 219 221 223 227 230 233 234 233 234 234 235 236 230 227 230 231 233 239 243 243 244 245 247 249 252 255 254 255 254 250 251 260 269 276 279 281 277 269 264 262 261 262 263 266 271 275 278 279 281 284 287 289 293 296 297 300 305 306 305 302 299 299 300 300 299
185 187 185 191 196 193 193 196 199 208 215 218 220 222 222 221 221 223 224 222 221 222 226 229 231 234 235 236 238 237 235 233 230 232 241 245 245 245 246 246 245 244 243 244 247 251 254 256 257 255 254 255 256 264 275 283 287 285 275 266 258 253 251 253 256 261 267 274 279 282 283 287 291 293 296 302 305 304 299 295 293 292 293 292 292
178 175 175 188 198 199 199 202 203 209 214 218 222 223 223 225 227 228 229 230 227 226 228 229 227 230 233 236 239 238 234 235 237 240 248 253 253 250 248 248 248 247 246 244 245 248 251 255 259 261 263 262 259 257 257 264 277 286 286 281 272 264 258 254 252 251 253 259 267 271 274 278 283 285 289 295 297 294 292 292 291 290 287 286 287
148 144 142 154 172 184 190 197 204 208 210 211 210 213 217 222 226 228 229 229 228 227 227 225 224 223 224 231 236 237 238 240 241 244 246 250 253 252 252 251 250 249 248 247 247 247 246 248 254 259 262 263 260 256 254 256 264 271 275 275 273 270 269 267 265 263 258 254 254 259 265 269 273 278 283 286 288 288 289 291 292 290 286 284 285
124 124 119 118 128 139 143 151 164 172 182 190 190 195 203 206 212 218 220 221 223 225 223 222 221 217 215 222 226 227 235 240 243 247 248 248 252 254 257 259 256 252 250 249 249 248 246 247 251 256 260 259 257 258 261 266 268 267 266 266 266 267 268 267 267 266 264 261 257 258 263 268 270 274 279 281 281 282 284 286 286 286 285 284 284
102 107 110 110 113 117 118 120 125 129 136 149 157 166 174 179 186 197 203 207 211 215 215 216 218 217 214 216 214 207 228 241 247 253 254 251 252 255 257 258 258 256 252 249 247 248 248 248 251 257 260 256 256 264 270 273 273 273 272 272 274 275 273 272 270 265 259 258 257 258 264 269 271 276 282 284 282 280 281 282 281 279 279 280 281
82 88 95 99 103 110 117 120 123 127 129 131 134 138 142 148 152 157 169 178 180 184 187 193 202 202 195 194 183 166 200 234 243 255 257 253 251 252 253 254 257 258 254 248 245 248 249 251 257 268 272 255 248 259 271 276 277 277 276 278 281 280 280 282 283 277 269 270 274 278 283 287 287 289 290 289 287 283 276 272 273 275 275 276 278
68 75 81 84 92 102 113 120 125 132 134 135 138 135 131 133 133 130 132 135 132 129 120 111 127 134 134 141 139 129 151 214 227 254 263 253 242 243 254 259 261 262 259 253 250 252 253 259 265 266 265 259 255 260 269 275 277 278 279 282 284 284 288 294 293 287 287 295 299 301 301 302 302 301 297 294 294 288 270 262 266 270 272 273 276
68 72 77 81 89 97 102 110 118 124 126 127 127 124 121 121 122 119 119 116 110 113 114 96 85 101 116 127 131 128 142 214 245 264 272 259 235 231 261 267 261 261 265 263 260 257 248 251 257 252 251 258 264 270 275 278 277 278 281 284 286 290 297 302 299 295 297 299 299 299 298 298 299 298 295 295 296 290 275 267 267 267 269 272 275
75 79 84 85 92 97 99 102 105 107 109 109 107 109 112 116 116 112 110 107 102 106 110 103 96 108 112 113 118 115 100 60 336 333 319 293 258 228 250 270 264 269 279 276 270 268 257 248 249 252 258 268 277 284 288 286 281 281 285 290 293 294 294 296 298 299 298 297 297 298 298 297 296 294 291 289 289 286 279 271 261 256 262 270 274
83 87 93 92 94 97 100 101 100 99 104 108 107 106 107 109 110 107 106 109 106 102 105 114 130 124 96 89 89 83 70 54 39 33 29 14 337 218 215 255 248 272 299 296 288 296 307 289 274 273 274 279 284 287 290 290 287 287 291 291 289 287 288 291 296 296 294 294 296 298 298 297 296 295 293 291 288 287 285 280 272 267 268 273 280
97 92 95 96 95 95 99 103 104 101 102 104 103 101 103 106 108 110 111 114 114 112 112 115 117 109 101 98 92 80 65 53 47 46 44 41 43 64 70 77 135 154 300 303 304 316 331 328 307 296 294 295 295 295 296 297 296 296 297 296 295 297 299 300 299 296 295 296 299 301 302 300 297 294 292 293 296 297 297 296 296 293 288 285 287
108 105 101 99 97 98 99 102 107 107 105 103 101 101 106 109 112 117 120 119 119 117 116 116 113 107 98 87 81 78 66 45 38 45 52 49 48 59 59 53 73 85 48 320 323 326 324 316 313 319 326 327 330 329 323 322 322 315 310 309 313 319 320 314 304 295 293 296 298 300 300 301 301 298 298 303 304 301 299 298 299 299 294 290 288
120 119 110 103 104 107 105 103 106 108 108 109 107 108 111 113 117 125 128 126 123 119 119 124 123 117 108 91 77 80 81 56 41 52 69 71 65 68 66 57 68 85 81 58 33 350 337 326 328 351 6 9 19 18 358 354 357 341 335 343 347 343 334 322 310 300 297 299 302 305 307 309 309 307 308 310 307 303 302 302 302 299 294 291 290
125 120 114 113 115 118 120 122 121 117 119 122 120 120 126 131 137 140 141 141 134 127 125 125 122 120 121 116 104 97 99 92 72 68 73 76 76 79 80 75 81 93 90 80 78 52 23 27 20 9 8 5 7 8 356 349 348 342 346 2 5 354 345 337 331 328 327 326 327 326 325 323 320 318 319 318 313 310 310 308 303 300 298 297 296
110 110 113 120 126 133 138 141 138 135 134 134 132 133 135 135 137 144 155 156 143 137 143 145 144 142 136 131 125 115 109 111 104 84 71 68 63 61 63 63 67 74 70 54 47 28 9 15 22 17 13 11 12 15 11 6 6 2 0 2 354 340 338 338 335 333 332 331 330 326 323 322 321 322 325 325 321 319 319 315 310 308 309 308 305
109 112 117 123 130 139 141 139 145 152 154 153 150 146 142 138 133 129 134 132 127 143 151 142 152 153 147 146 142 133 123 111 95 73 56 48 30 27 34 32 32 41 35 18 14 1 347 355 8 9 7 7 9 11 11 11 11 7 5 3 354 346 347 340 327 320 318 319 320 317 314 316 319 321 323 322 320 321 326 328 324 320 319 316 310
110 114 119 123 128 135 139 145 155 156 157 156 145 131 134 144 136 114 79 50 29 16 88 107 121 165 147 149 159 163 149 105 69 56 47 40 31 25 26 23 23 21 11 5 2 343 326 335 347 350 347 345 348 348 347 357 360 356 356 357 350 348 351 344 334 330 326 322 319 316 315 317 319 320 319 315 313 316 322 325 325 322 321 320 315
108 109 112 114 120 135 151 165 166 159 158 153 129 86 66 92 103 94 79 59 42 46 43 46 61 66 66 78 207 208 162 90 64 61 54 43 43 44 35 31 31 20 8 12 16 352 328 329 336 344 342 338 340 341 339 347 351 350 354 353 347 347 351 347 343 341 335 329 325 322 322 321 320 320 319 316 316 318 320 321 321 320 320 318 314
124 124 118 111 116 131 142 149 152 157 162 151 135 114 88 94 106 103 94 90 100 122 100 36 62 162 138 61 25 337 104 95 72 62 56 43 39 41 36 32 30 17 9 16 18 350 332 332 340 348 344 340 345 347 344 347 349 346 346 347 346 348 347 345 346 341 334 329 326 324 323 322 321 321 322 320 318 319 319 318 317 316 314 312 311
135 136 129 116 113 119 128 134 144 161 169 159 156 159 150 144 158 176 155 119 101 109 297 328 173 193 186 131 78 339 16 92 57 32 38 33 28 26 21 18 16 11 13 16 2 336 331 334 339 346 342 340 347 348 344 345 347 345 341 339 342 345 342 342 343 338 329 324 324 324 322 321 321 321 321 320 318 317 318 317 316 313 310 308 308
134 134 126 121 121 130 139 142 150 164 174 180 187 194 184 165 160 162 167 185 208 226 259 259 212 203 198 176 165 233 284 298 344 357 357 359 5 6 2 1 0 2 11 13 352 333 335 334 334 340 340 338 343 346 343 342 343 341 338 335 336 336 336 338 335 329 324 322 322 320 317 317 319 318 317 316 315 314 315 315 314 312 309 308 308
108 99 102 116 131 142 143 150 164 174 180 190 200 210 219 216 190 163 157 175 212 225 231 232 217 210 211 205 200 217 252 281 312 328 325 327 332 335 341 351 354 359 5 359 331 325 333 331 332 339 339 337 339 339 337 337 337 336 334 332 331 329 330 332 328 322 320 321 319 315 315 318 318 316 314 314 313 312 312 312 311 311 310 309 310
113 97 98 108 125 143 146 167 187 192 195 205 212 218 229 242 235 198 177 182 197 201 208 216 214 210 212 215 226 245 261 280 298 303 305 305 302 307 324 332 332 338 351 343 319 316 320 321 326 332 332 332 336 335 333 333 332 331 329 328 327 326 327 328 325 323 324 322 318 316 317 317 316 314 312 312 312 311 310 310 311 312 312 311 309
134 135 141 138 146 175 195 214 222 222 222 223 228 234 233 234 239 237 231 228 221 204 194 195 201 211 224 237 254 269 279 287 294 298 302 298 290 294 308 309 295 283 284 297 303 304 304 306 312 318 321 324 327 327 328 329 329 329 329 327 326 326 325 324 324 325 325 321 316 315 314 313 312 311 310 310 310 310 309 309 311 311 310 310 309
144 146 156 169 183 184 196 218 227 235 246 243 237 239 240 237 238 241 244 248 246 239 231 219 206 215 243 263 272 279 284 290 296 299 299 294 289 287 290 292 291 286 284 287 292 294 295 296 300 305 308 312 316 319 321 323 324 325 325 323 323 323 322 322 324 323 321 316 312 310 310 309 309 310 310 308 306 306 305 306 306 306 306 307 307
161 156 163 178 195 196 206 218 224 237 253 248 240 240 243 243 246 248 246 246 248 251 256 253 240 235 245 253 262 286 301 305 308 304 292 282 282 278 274 279 287 288 285 285 288 291 291 291 294 298 300 302 307 311 313 315 318 319 321 320 319 316 314 313 315 315 314 311 309 307 307 307 308 309 308 305 304 304 304 304 304 303 302 303 302
162 159 166 175 190 210 217 218 219 226 236 237 236 240 242 241 242 246 247 248 249 250 253 256 254 252 251 246 254 296 308 304 300 287 260 244 249 262 269 276 281 280 278 281 285 287 287 287 290 294 296 297 301 304 306 308 311 313 316 316 314 311 309 307 307 308 309 308 307 306 306 305 305 305 304 303 302 302 302 302 303 303 303 303 300
169 178 184 185 193 214 222 222 221 223 230 235 238 243 246 245 244 243 243 246 249 250 253 255 254 257 262 266 279 298 301 294 291 283 261 249 257 270 276 280 280 278 279 281 283 282 283 284 286 290 292 294 297 300 303 305 307 309 311 311 310 311 310 309 308 309 308 306 305 305 304 303 303 303 301 299 299 300 301 302 302 302 301 300 298
180 182 183 186 196 210 217 226 229 227 230 240 246 249 251 252 252 249 246 247 248 249 252 256 257 261 266 264 267 281 286 284 286 287 278 271 274 277 278 278 280 283 285 285 284 284 283 284 286 288 289 291 294 297 300 302 303 305 306 307 308 308 309 308 308 307 305 304 303 302 301 300 301 300 298 297 298 299 298 298 297 296 295 295 295
189 180 175 181 195 205 214 225 227 223 227 240 250 252 251 249 250 250 250 250 249 249 251 254 257 260 259 251 252 264 275 278 279 276 272 272 274 277 278 279 283 288 288 286 285 285 285 287 289 288 287 289 292 294 297 298 300 302 304 305 305 305 305 306 306 305 304 303 301 299 299 299 299 299 298 297 297 297 295 293 292 293 293 293 293
197 190 185 188 194 201 214 222 220 219 229 240 245 248 247 244 243 245 246 247 248 249 251 252 251 248 244 259 271 275 271 270 271 271 270 271 273 275 276 278 280 285 287 286 285 287 288 289 288 286 286 290 292 293 294 296 297 299 301 302 302 303 303 304 304 303 302 301 299 299 299 298 298 297 296 296 297 296 294 293 293 294 294 294 293
205 201 197 197 198 204 215 222 224 227 232 237 239 241 243 242 240 241 242 243 246 250 252 253 254 251 245 262 285 287 271 264 266 267 267 269 271 271 272 276 281 286 287 283 281 285 288 288 285 283 285 288 290 291 292 293 295 296 297 298 299 300 301 301 302 303 302 302 301 300 300 299 298 297 296 296 297 296 295 295 295 295 295 295 294
212 213 210 206 205 207 211 218 226 230 232 237 240 240 238 238 237 238 240 242 245 249 251 253 257 258 255 262 278 282 269 262 263 266 268 271 272 272 275 280 285 287 285 282 281 284 287 286 284 284 285 286 287 288 290 291 292 294 295 297 299 300 300 301 302 304 306 306 306 304 303 302 301 299 297 296 296 296 296 295 295 295 294 294 294
218 223 220 210 201 198 196 204 218 223 223 225 228 228 230 234 236 237 240 243 246 249 250 252 256 258 258 260 266 268 266 265 267 268 270 272 273 272 274 279 282 283 283 283 283 286 286 285 285 286 286 286 286 287 288 288 289 291 293 294 296 298 299 302 304 306 308 310 310 308 306 304 302 300 299 298 297 296 295 293 292 292 293 293 293
218 224 224 212 197 189 188 194 207 212 214 219 223 225 229 233 235 238 242 246 250 252 253 254 256 256 256 259 263 265 267 269 268 267 269 272 272 271 274 278 281 282 283 283 285 287 287 286 286 286 287 288 288 288 287 288 288 289 289 290 293 295 297 300 303 306 308 310 311 309 307 305 303 301 300 299 297 295 293 291 290 290 291 290 290
209 216 217 207 187 180 185 195 206 214 219 224 229 232 235 237 239 243 247 250 253 254 254 254 255 255 255 258 262 265 266 267 266 266 269 271 271 272 276 280 282 283 283 284 288 289 288 287 288 288 289 289 288 288 288 287 287 287 288 289 293 294 293 295 301 307 309 309 309 308 306 303 301 299 298 297 296 294 293 292 291 289 288 287 287
202 205 204 193 180 180 191 203 214 222 226 227 228 231 238 242 243 243 244 244 245 249 250 250 253 256 257 259 263 265 266 266 268 269 270 271 272 274 277 281 284 285 285 286 288 289 289 290 291 290 289 290 289 288 288 288 287 287 287 287 287 288 290 295 302 308 308 307 307 305 301 298 297 295 294 293 292 291 290 290 289 289 288 287 287
195 194 189 184 181 187 196 203 211 217 221 221 217 217 225 232 234 237 240 240 241 246 249 250 252 255 259 262 264 266 268 269 270 271 272 273 275 276 278 281 284 286 287 288 289 290 290 290 289 289 288 289 287 287 288 289 287 287 286 283 282 285 290 294 299 304 308 309 307 303 299 296 294 292 290 289 288 287 287 288 288 288 288 288 287
189 188 184 178 178 185 191 197 203 208 209 207 201 198 208 222 228 231 236 240 241 243 248 251 253 255 260 265 268 271 273 275 276 277 278 278 279 279 280 282 285 287 289 289 289 289 289 289 289 288 288 287 286 287 287 287 285 284 281 279 281 287 291 295 302 310 315 313 308 302 298 295 293 291 289 288 287 287 287 287 288 288 289 289 288
179 179 175 170 172 178 182 187 195 200 199 198 198 199 206 221 229 230 232 240 246 248 252 256 258 259 263 268 270 274 278 280 281 282 282 281 281 283 283 284 287 289 289 290 290 290 289 289 289 288 287 288 288 287 285 284 283 281 279 280 286 293 299 304 309 312 313 311 309 305 300 294 292 290 288 287 288 288 288 288 289 289 289 289 288